Year,Month,Day,Hour,Minute,Value (Times are PST for temperature in C)
2014,01,20,00,00,2.70
2014,01,20,00,01,2.70
2014,01,20,00,02,2.70
2014,01,20,00,03,2.70
2014,01,20,00,04,2.70
2014,01,20,00,05,2.70
2014,01,20,00,06,2.70
2014,01,20,00,07,2.70
2014,01,20,00,08,2.60
2014,01,20,00,09,2.60
2014,01,20,00,10,2.60
2014,01,20,00,11,2.60
2014,01,20,00,12,2.60
2014,01,20,00,13,2.60
2014,01,20,00,14,2.60
2014,01,20,00,15,2.60
2014,01,20,00,16,2.60
2014,01,20,00,17,2.60
2014,01,20,00,18,2.60
2014,01,20,00,19,2.60
2014,01,20,00,20,2.60
2014,01,20,00,21,2.60
2014,01,20,00,22,2.60
2014,01,20,00,23,2.60
2014,01,20,00,24,2.60
2014,01,20,00,25,2.60
2014,01,20,00,26,2.60
2014,01,20,00,27,2.60
2014,01,20,00,28,2.60
2014,01,20,00,29,2.60
2014,01,20,00,30,2.60
2014,01,20,00,31,2.60
2014,01,20,00,32,2.60
2014,01,20,00,33,2.60
2014,01,20,00,34,2.60
2014,01,20,00,35,2.60
2014,01,20,00,36,2.60
2014,01,20,00,37,2.60
2014,01,20,00,38,2.50
2014,01,20,00,39,2.50
2014,01,20,00,40,2.50
2014,01,20,00,41,2.50
2014,01,20,00,42,2.40
2014,01,20,00,43,2.40
2014,01,20,00,44,2.40
2014,01,20,00,45,2.40
2014,01,20,00,46,2.40
2014,01,20,00,47,2.40
2014,01,20,00,48,2.40
2014,01,20,00,49,2.30
2014,01,20,00,50,2.30
2014,01,20,00,51,2.30
2014,01,20,00,52,2.30
2014,01,20,00,53,2.30
2014,01,20,00,54,2.30
2014,01,20,00,55,2.30
2014,01,20,00,56,2.30
2014,01,20,00,57,2.30
2014,01,20,00,58,2.30
2014,01,20,00,59,2.30
2014,01,20,01,00,2.30
2014,01,20,01,01,2.30
2014,01,20,01,02,2.30
2014,01,20,01,03,2.30
2014,01,20,01,04,2.20
2014,01,20,01,05,2.30
2014,01,20,01,06,2.30
2014,01,20,01,07,2.30
2014,01,20,01,08,2.30
2014,01,20,01,09,2.30
2014,01,20,01,10,2.30
2014,01,20,01,11,2.30
2014,01,20,01,12,2.30
2014,01,20,01,13,2.30
2014,01,20,01,14,2.30
2014,01,20,01,15,2.30
2014,01,20,01,16,2.30
2014,01,20,01,17,2.30
2014,01,20,01,18,2.40
2014,01,20,01,19,2.40
2014,01,20,01,20,2.40
2014,01,20,01,21,2.40
2014,01,20,01,22,2.40
2014,01,20,01,23,2.40
2014,01,20,01,24,2.40
2014,01,20,01,25,2.40
2014,01,20,01,26,2.40
2014,01,20,01,27,2.40
2014,01,20,01,28,2.40
2014,01,20,01,29,2.40
2014,01,20,01,30,2.40
2014,01,20,01,31,2.40
2014,01,20,01,32,2.40
2014,01,20,01,33,2.40
2014,01,20,01,34,2.40
2014,01,20,01,35,2.40
2014,01,20,01,36,2.40
2014,01,20,01,37,2.40
2014,01,20,01,38,2.40
2014,01,20,01,39,2.40
2014,01,20,01,40,2.40
2014,01,20,01,41,2.40
2014,01,20,01,42,2.40
2014,01,20,01,43,2.40
2014,01,20,01,44,2.40
2014,01,20,01,45,2.40
2014,01,20,01,46,2.30
2014,01,20,01,47,2.30
2014,01,20,01,48,2.30
2014,01,20,01,49,2.20
2014,01,20,01,50,2.20
2014,01,20,01,51,2.20
2014,01,20,01,52,2.20
2014,01,20,01,53,2.10
2014,01,20,01,54,2.10
2014,01,20,01,55,2.10
2014,01,20,01,56,2.10
2014,01,20,01,57,2.10
2014,01,20,01,58,2.10
2014,01,20,01,59,2.00
2014,01,20,02,00,2.00
2014,01,20,02,01,2.00
2014,01,20,02,02,2.00
2014,01,20,02,03,2.00
2014,01,20,02,04,2.00
2014,01,20,02,05,2.00
2014,01,20,02,06,2.00
2014,01,20,02,07,2.00
2014,01,20,02,08,2.00
2014,01,20,02,09,2.10
2014,01,20,02,10,2.10
2014,01,20,02,11,2.10
2014,01,20,02,12,2.10
2014,01,20,02,13,2.10
2014,01,20,02,14,2.10
2014,01,20,02,15,2.10
2014,01,20,02,16,2.10
2014,01,20,02,17,2.10
2014,01,20,02,18,2.10
2014,01,20,02,19,2.20
2014,01,20,02,20,2.20
2014,01,20,02,21,2.20
2014,01,20,02,22,2.20
2014,01,20,02,23,2.20
2014,01,20,02,24,2.20
2014,01,20,02,25,2.20
2014,01,20,02,26,2.20
2014,01,20,02,27,2.20
2014,01,20,02,28,2.20
2014,01,20,02,29,2.20
2014,01,20,02,30,2.20
2014,01,20,02,31,2.20
2014,01,20,02,32,2.20
2014,01,20,02,33,2.20
2014,01,20,02,34,2.20
2014,01,20,02,35,2.20
2014,01,20,02,36,2.20
2014,01,20,02,37,2.20
2014,01,20,02,38,2.20
2014,01,20,02,39,2.20
2014,01,20,02,40,2.20
2014,01,20,02,41,2.20
2014,01,20,02,42,2.20
2014,01,20,02,43,2.20
2014,01,20,02,44,2.20
2014,01,20,02,45,2.20
2014,01,20,02,46,2.20
2014,01,20,02,47,2.20
2014,01,20,02,48,2.20
2014,01,20,02,49,2.20
2014,01,20,02,50,2.20
2014,01,20,02,51,2.20
2014,01,20,02,52,2.20
2014,01,20,02,53,2.10
2014,01,20,02,54,2.10
2014,01,20,02,55,2.10
2014,01,20,02,56,2.10
2014,01,20,02,57,2.10
2014,01,20,02,58,2.10
2014,01,20,02,59,2.10
2014,01,20,03,00,2.00
2014,01,20,03,01,2.00
2014,01,20,03,02,2.00
2014,01,20,03,03,2.00
2014,01,20,03,04,2.00
2014,01,20,03,05,2.00
2014,01,20,03,06,2.00
2014,01,20,03,07,2.00
2014,01,20,03,08,2.00
2014,01,20,03,09,2.00
2014,01,20,03,10,2.00
2014,01,20,03,11,2.00
2014,01,20,03,12,2.00
2014,01,20,03,13,2.00
2014,01,20,03,14,2.00
2014,01,20,03,15,2.00
2014,01,20,03,16,2.00
2014,01,20,03,17,2.10
2014,01,20,03,18,2.00
2014,01,20,03,19,2.10
2014,01,20,03,20,2.10
2014,01,20,03,21,2.10
2014,01,20,03,22,2.10
2014,01,20,03,23,2.10
2014,01,20,03,24,2.10
2014,01,20,03,25,2.10
2014,01,20,03,26,2.10
2014,01,20,03,27,2.10
2014,01,20,03,28,2.10
2014,01,20,03,29,2.10
2014,01,20,03,30,2.10
2014,01,20,03,31,2.10
2014,01,20,03,32,2.10
2014,01,20,03,33,2.10
2014,01,20,03,34,2.00
2014,01,20,03,35,2.00
2014,01,20,03,36,2.00
2014,01,20,03,37,2.00
2014,01,20,03,38,2.00
2014,01,20,03,39,2.00
2014,01,20,03,40,2.00
2014,01,20,03,41,2.00
2014,01,20,03,42,2.00
2014,01,20,03,43,2.00
2014,01,20,03,44,2.00
2014,01,20,03,45,2.00
2014,01,20,03,46,2.00
2014,01,20,03,47,2.00
2014,01,20,03,48,2.00
2014,01,20,03,49,2.00
2014,01,20,03,50,1.90
2014,01,20,03,51,1.90
2014,01,20,03,52,1.90
2014,01,20,03,53,1.90
2014,01,20,03,54,1.90
2014,01,20,03,55,1.90
2014,01,20,03,56,1.90
2014,01,20,03,57,1.90
2014,01,20,03,58,1.90
2014,01,20,03,59,1.90
2014,01,20,04,00,1.90
2014,01,20,04,01,1.90
2014,01,20,04,02,1.90
2014,01,20,04,03,1.90
2014,01,20,04,04,1.90
2014,01,20,04,05,1.90
2014,01,20,04,06,1.90
2014,01,20,04,07,1.90
2014,01,20,04,08,1.90
2014,01,20,04,09,1.90
2014,01,20,04,10,1.90
2014,01,20,04,11,1.90
2014,01,20,04,12,1.80
2014,01,20,04,13,1.80
2014,01,20,04,14,1.80
2014,01,20,04,15,1.80
2014,01,20,04,16,1.80
2014,01,20,04,17,1.80
2014,01,20,04,18,1.80
2014,01,20,04,19,1.70
2014,01,20,04,20,1.70
2014,01,20,04,21,1.70
2014,01,20,04,22,1.70
2014,01,20,04,23,1.70
2014,01,20,04,24,1.70
2014,01,20,04,25,1.70
2014,01,20,04,26,1.70
2014,01,20,04,27,1.70
2014,01,20,04,28,1.70
2014,01,20,04,29,1.70
2014,01,20,04,30,1.70
2014,01,20,04,31,1.60
2014,01,20,04,32,1.60
2014,01,20,04,33,1.60
2014,01,20,04,34,1.60
2014,01,20,04,35,1.60
2014,01,20,04,36,1.60
2014,01,20,04,37,1.60
2014,01,20,04,38,1.60
2014,01,20,04,39,1.60
2014,01,20,04,40,1.60
2014,01,20,04,41,1.60
2014,01,20,04,42,1.60
2014,01,20,04,43,1.60
2014,01,20,04,44,1.60
2014,01,20,04,45,1.60
2014,01,20,04,46,1.50
2014,01,20,04,47,1.60
2014,01,20,04,48,1.60
2014,01,20,04,49,1.60
2014,01,20,04,50,1.60
2014,01,20,04,51,1.60
2014,01,20,04,52,1.60
2014,01,20,04,53,1.60
2014,01,20,04,54,1.60
2014,01,20,04,55,1.60
2014,01,20,04,56,1.60
2014,01,20,04,57,1.60
2014,01,20,04,58,1.60
2014,01,20,04,59,1.60
2014,01,20,05,00,1.60
2014,01,20,05,01,1.60
2014,01,20,05,02,1.60
2014,01,20,05,03,1.60
2014,01,20,05,04,1.60
2014,01,20,05,05,1.60
2014,01,20,05,06,1.60
2014,01,20,05,07,1.60
2014,01,20,05,08,1.60
2014,01,20,05,09,1.60
2014,01,20,05,10,1.60
2014,01,20,05,11,1.60
2014,01,20,05,12,1.60
2014,01,20,05,13,1.60
2014,01,20,05,14,1.60
2014,01,20,05,15,1.60
2014,01,20,05,16,1.60
2014,01,20,05,17,1.60
2014,01,20,05,18,1.60
2014,01,20,05,19,1.60
2014,01,20,05,20,1.60
2014,01,20,05,21,1.60
2014,01,20,05,22,1.60
2014,01,20,05,23,1.60
2014,01,20,05,24,1.60
2014,01,20,05,25,1.60
2014,01,20,05,26,1.60
2014,01,20,05,27,1.60
2014,01,20,05,28,1.60
2014,01,20,05,29,1.60
2014,01,20,05,30,1.60
2014,01,20,05,31,1.60
2014,01,20,05,32,1.60
2014,01,20,05,33,1.50
2014,01,20,05,34,1.50
2014,01,20,05,35,1.50
2014,01,20,05,36,1.50
2014,01,20,05,37,1.50
2014,01,20,05,38,1.50
2014,01,20,05,39,1.50
2014,01,20,05,40,1.50
2014,01,20,05,41,1.50
2014,01,20,05,42,1.50
2014,01,20,05,43,1.50
2014,01,20,05,44,1.50
2014,01,20,05,45,1.50
2014,01,20,05,46,1.50
2014,01,20,05,47,1.50
2014,01,20,05,48,1.40
2014,01,20,05,49,1.40
2014,01,20,05,50,1.40
2014,01,20,05,51,1.40
2014,01,20,05,52,1.40
2014,01,20,05,53,1.40
2014,01,20,05,54,1.40
2014,01,20,05,55,1.40
2014,01,20,05,56,1.40
2014,01,20,05,57,1.40
2014,01,20,05,58,1.30
2014,01,20,05,59,1.30
2014,01,20,06,00,1.30
2014,01,20,06,01,1.30
2014,01,20,06,02,1.30
2014,01,20,06,03,1.30
2014,01,20,06,04,1.30
2014,01,20,06,05,1.30
2014,01,20,06,06,1.30
2014,01,20,06,07,1.30
2014,01,20,06,08,1.30
2014,01,20,06,09,1.30
2014,01,20,06,10,1.30
2014,01,20,06,11,1.30
2014,01,20,06,12,1.30
2014,01,20,06,13,1.30
2014,01,20,06,14,1.30
2014,01,20,06,15,1.30
2014,01,20,06,16,1.30
2014,01,20,06,17,1.30
2014,01,20,06,18,1.30
2014,01,20,06,19,1.30
2014,01,20,06,20,1.30
2014,01,20,06,21,1.30
2014,01,20,06,22,1.30
2014,01,20,06,23,1.30
2014,01,20,06,24,1.30
2014,01,20,06,25,1.30
2014,01,20,06,26,1.30
2014,01,20,06,27,1.30
2014,01,20,06,28,1.30
2014,01,20,06,29,1.30
2014,01,20,06,30,1.30
2014,01,20,06,31,1.30
2014,01,20,06,32,1.30
2014,01,20,06,33,1.30
2014,01,20,06,34,1.30
2014,01,20,06,35,1.30
2014,01,20,06,36,1.30
2014,01,20,06,37,1.30
2014,01,20,06,38,1.30
2014,01,20,06,39,1.20
2014,01,20,06,40,1.20
2014,01,20,06,41,1.20
2014,01,20,06,42,1.20
2014,01,20,06,43,1.20
2014,01,20,06,44,1.20
2014,01,20,06,45,1.20
2014,01,20,06,46,1.20
2014,01,20,06,47,1.20
2014,01,20,06,48,1.20
2014,01,20,06,49,1.20
2014,01,20,06,50,1.20
2014,01,20,06,51,1.20
2014,01,20,06,52,1.20
2014,01,20,06,53,1.10
2014,01,20,06,54,1.10
2014,01,20,06,55,1.10
2014,01,20,06,56,1.10
2014,01,20,06,57,1.10
2014,01,20,06,58,1.10
2014,01,20,06,59,1.10
2014,01,20,07,00,1.10
2014,01,20,07,01,1.10
2014,01,20,07,02,1.10
2014,01,20,07,03,1.10
2014,01,20,07,04,1.10
2014,01,20,07,05,1.10
2014,01,20,07,06,1.10
2014,01,20,07,07,1.10
2014,01,20,07,08,1.10
2014,01,20,07,09,1.10
2014,01,20,07,10,1.10
2014,01,20,07,11,1.00
2014,01,20,07,12,1.00
2014,01,20,07,13,1.00
2014,01,20,07,14,1.00
2014,01,20,07,15,1.00
2014,01,20,07,16,1.00
2014,01,20,07,17,1.00
2014,01,20,07,18,1.00
2014,01,20,07,19,1.00
2014,01,20,07,20,1.00
2014,01,20,07,21,1.00
2014,01,20,07,22,1.00
2014,01,20,07,23,1.00
2014,01,20,07,24,1.00
2014,01,20,07,25,1.00
2014,01,20,07,26,1.00
2014,01,20,07,27,1.00
2014,01,20,07,28,1.00
2014,01,20,07,29,1.00
2014,01,20,07,30,1.00
2014,01,20,07,31,1.00
2014,01,20,07,32,1.10
2014,01,20,07,33,1.10
2014,01,20,07,34,1.10
2014,01,20,07,35,1.00
2014,01,20,07,36,1.00
2014,01,20,07,37,1.00
2014,01,20,07,38,1.00
2014,01,20,07,39,1.00
2014,01,20,07,40,0.90
2014,01,20,07,41,0.90
2014,01,20,07,42,0.90
2014,01,20,07,43,0.90
2014,01,20,07,44,0.90
2014,01,20,07,45,0.80
2014,01,20,07,46,0.80
2014,01,20,07,47,0.80
2014,01,20,07,48,0.80
2014,01,20,07,49,0.80
2014,01,20,07,50,0.80
2014,01,20,07,51,0.80
2014,01,20,07,52,0.80
2014,01,20,07,53,0.80
2014,01,20,07,54,0.80
2014,01,20,07,55,0.80
2014,01,20,07,56,0.80
2014,01,20,07,57,0.80
2014,01,20,07,58,0.80
2014,01,20,07,59,0.80
2014,01,20,08,00,0.80
2014,01,20,08,01,0.80
2014,01,20,08,02,0.70
2014,01,20,08,03,0.70
2014,01,20,08,04,0.70
2014,01,20,08,05,0.70
2014,01,20,08,06,0.70
2014,01,20,08,07,0.70
2014,01,20,08,08,0.70
2014,01,20,08,09,0.70
2014,01,20,08,10,0.70
2014,01,20,08,11,0.60
2014,01,20,08,12,0.60
2014,01,20,08,13,0.60
2014,01,20,08,14,0.60
2014,01,20,08,15,0.60
2014,01,20,08,16,0.60
2014,01,20,08,17,0.60
2014,01,20,08,18,0.60
2014,01,20,08,19,0.60
2014,01,20,08,20,0.60
2014,01,20,08,21,0.50
2014,01,20,08,22,0.50
2014,01,20,08,23,0.50
2014,01,20,08,24,0.50
2014,01,20,08,25,0.50
2014,01,20,08,26,0.50
2014,01,20,08,27,0.50
2014,01,20,08,28,0.50
2014,01,20,08,29,0.50
2014,01,20,08,30,0.50
2014,01,20,08,31,0.50
2014,01,20,08,32,0.50
2014,01,20,08,33,0.50
2014,01,20,08,34,0.50
2014,01,20,08,35,0.50
2014,01,20,08,36,0.50
2014,01,20,08,37,0.50
2014,01,20,08,38,0.50
2014,01,20,08,39,0.40
2014,01,20,08,40,0.40
2014,01,20,08,41,0.40
2014,01,20,08,42,0.40
2014,01,20,08,43,0.40
2014,01,20,08,44,0.40
2014,01,20,08,45,0.40
2014,01,20,08,46,0.50
2014,01,20,08,47,0.50
2014,01,20,08,48,0.50
2014,01,20,08,49,0.50
2014,01,20,08,50,0.50
2014,01,20,08,51,0.50
2014,01,20,08,52,0.50
2014,01,20,08,53,0.50
2014,01,20,08,54,0.50
2014,01,20,08,55,0.40
2014,01,20,08,56,0.40
2014,01,20,08,57,0.40
2014,01,20,08,58,0.40
2014,01,20,08,59,0.40
2014,01,20,09,00,0.40
2014,01,20,09,01,0.40
2014,01,20,09,02,0.30
2014,01,20,09,03,0.30
2014,01,20,09,04,0.30
2014,01,20,09,05,0.30
2014,01,20,09,06,0.30
2014,01,20,09,07,0.30
2014,01,20,09,08,0.30
2014,01,20,09,09,0.30
2014,01,20,09,10,0.30
2014,01,20,09,11,0.30
2014,01,20,09,12,0.30
2014,01,20,09,13,0.20
2014,01,20,09,14,0.20
2014,01,20,09,15,0.20
2014,01,20,09,16,0.20
2014,01,20,09,17,0.20
2014,01,20,09,18,0.20
2014,01,20,09,19,0.20
2014,01,20,09,20,0.20
2014,01,20,09,21,0.20
2014,01,20,09,22,0.20
2014,01,20,09,23,0.20
2014,01,20,09,24,0.20
2014,01,20,09,25,0.20
2014,01,20,09,26,0.20
2014,01,20,09,27,0.20
2014,01,20,09,28,0.20
2014,01,20,09,29,0.20
2014,01,20,09,30,0.20
2014,01,20,09,31,0.20
2014,01,20,09,32,0.20
2014,01,20,09,33,0.20
2014,01,20,09,34,0.20
2014,01,20,09,35,0.20
2014,01,20,09,36,0.20
2014,01,20,09,37,0.30
2014,01,20,09,38,0.30
2014,01,20,09,39,0.30
2014,01,20,09,40,0.30
2014,01,20,09,41,0.30
2014,01,20,09,42,0.40
2014,01,20,09,43,0.40
2014,01,20,09,44,0.40
2014,01,20,09,45,0.40
2014,01,20,09,46,0.50
2014,01,20,09,47,0.50
2014,01,20,09,48,0.60
2014,01,20,09,49,0.60
2014,01,20,09,50,0.70
2014,01,20,09,51,0.70
2014,01,20,09,52,0.80
2014,01,20,09,53,0.90
2014,01,20,09,54,0.90
2014,01,20,09,55,1.00
2014,01,20,09,56,1.10
2014,01,20,09,57,1.20
2014,01,20,09,58,1.20
2014,01,20,09,59,1.30
2014,01,20,10,00,1.30
2014,01,20,10,01,1.30
2014,01,20,10,02,1.30
2014,01,20,10,03,1.40
2014,01,20,10,04,1.40
2014,01,20,10,05,1.50
2014,01,20,10,06,1.50
2014,01,20,10,07,1.60
2014,01,20,10,08,1.60
2014,01,20,10,09,1.60
2014,01,20,10,10,1.60
2014,01,20,10,11,1.60
2014,01,20,10,12,1.70
2014,01,20,10,13,1.70
2014,01,20,10,14,1.70
2014,01,20,10,15,1.70
2014,01,20,10,16,1.80
2014,01,20,10,17,1.80
2014,01,20,10,18,1.90
2014,01,20,10,19,2.00
2014,01,20,10,20,2.00
2014,01,20,10,21,2.10
2014,01,20,10,22,2.10
2014,01,20,10,23,2.20
2014,01,20,10,24,2.20
2014,01,20,10,25,2.30
2014,01,20,10,26,2.40
2014,01,20,10,27,2.50
2014,01,20,10,28,2.60
2014,01,20,10,29,2.60
2014,01,20,10,30,2.60
2014,01,20,10,31,2.70
2014,01,20,10,32,2.70
2014,01,20,10,33,2.70
2014,01,20,10,34,2.70
2014,01,20,10,35,2.80
2014,01,20,10,36,2.80
2014,01,20,10,37,2.80
2014,01,20,10,38,2.90
2014,01,20,10,39,2.90
2014,01,20,10,40,2.90
2014,01,20,10,41,2.90
2014,01,20,10,42,3.00
2014,01,20,10,43,3.00
2014,01,20,10,44,3.00
2014,01,20,10,45,3.00
2014,01,20,10,46,3.00
2014,01,20,10,47,3.00
2014,01,20,10,48,3.10
2014,01,20,10,49,3.10
2014,01,20,10,50,3.10
2014,01,20,10,51,3.10
2014,01,20,10,52,3.10
2014,01,20,10,53,3.20
2014,01,20,10,54,3.20
2014,01,20,10,55,3.20
2014,01,20,10,56,3.20
2014,01,20,10,57,3.30
2014,01,20,10,58,3.30
2014,01,20,10,59,3.30
2014,01,20,11,00,3.40
2014,01,20,11,01,3.40
2014,01,20,11,02,3.50
2014,01,20,11,03,3.60
2014,01,20,11,04,3.60
2014,01,20,11,05,3.60
2014,01,20,11,06,3.60
2014,01,20,11,07,3.60
2014,01,20,11,08,3.60
2014,01,20,11,09,3.60
2014,01,20,11,10,3.60
2014,01,20,11,11,3.60
2014,01,20,11,12,3.60
2014,01,20,11,13,3.60
2014,01,20,11,14,3.60
2014,01,20,11,15,3.60
2014,01,20,11,16,3.70
2014,01,20,11,17,3.70
2014,01,20,11,18,3.80
2014,01,20,11,19,4.00
2014,01,20,11,20,4.10
2014,01,20,11,21,4.20
2014,01,20,11,22,4.20
2014,01,20,11,23,4.30
2014,01,20,11,24,4.30
2014,01,20,11,25,4.30
2014,01,20,11,26,4.20
2014,01,20,11,27,4.20
2014,01,20,11,28,4.20
2014,01,20,11,29,4.20
2014,01,20,11,30,4.20
2014,01,20,11,31,4.20
2014,01,20,11,32,4.20
2014,01,20,11,33,4.20
2014,01,20,11,34,4.20
2014,01,20,11,35,4.20
2014,01,20,11,36,4.30
2014,01,20,11,37,4.40
2014,01,20,11,38,4.50
2014,01,20,11,39,4.70
2014,01,20,11,40,4.80
2014,01,20,11,41,4.80
2014,01,20,11,42,4.90
2014,01,20,11,43,4.90
2014,01,20,11,44,4.90
2014,01,20,11,45,5.00
2014,01,20,11,46,5.00
2014,01,20,11,47,5.10
2014,01,20,11,48,5.10
2014,01,20,11,49,5.20
2014,01,20,11,50,5.30
2014,01,20,11,51,5.30
2014,01,20,11,52,5.40
2014,01,20,11,53,5.40
2014,01,20,11,54,5.50
2014,01,20,11,55,5.50
2014,01,20,11,56,5.60
2014,01,20,11,57,5.60
2014,01,20,11,58,5.70
2014,01,20,11,59,5.70
2014,01,20,12,00,5.70
2014,01,20,12,01,5.70
2014,01,20,12,02,5.70
2014,01,20,12,03,5.60
2014,01,20,12,04,5.50
2014,01,20,12,05,5.50
2014,01,20,12,06,5.40
2014,01,20,12,07,5.40
2014,01,20,12,08,5.30
2014,01,20,12,09,5.30
2014,01,20,12,10,5.30
2014,01,20,12,11,5.30
2014,01,20,12,12,5.20
2014,01,20,12,13,5.20
2014,01,20,12,14,5.20
2014,01,20,12,15,5.20
2014,01,20,12,16,5.30
2014,01,20,12,17,5.30
2014,01,20,12,18,5.30
2014,01,20,12,19,5.30
2014,01,20,12,20,5.40
2014,01,20,12,21,5.40
2014,01,20,12,22,5.40
2014,01,20,12,23,5.50
2014,01,20,12,24,5.50
2014,01,20,12,25,5.60
2014,01,20,12,26,5.60
2014,01,20,12,27,5.70
2014,01,20,12,28,5.70
2014,01,20,12,29,5.70
2014,01,20,12,30,5.80
2014,01,20,12,31,5.80
2014,01,20,12,32,5.80
2014,01,20,12,33,5.80
2014,01,20,12,34,5.90
2014,01,20,12,35,5.90
2014,01,20,12,36,5.90
2014,01,20,12,37,6.00
2014,01,20,12,38,6.00
2014,01,20,12,39,6.10
2014,01,20,12,40,6.10
2014,01,20,12,41,6.20
2014,01,20,12,42,6.30
2014,01,20,12,43,6.40
2014,01,20,12,44,6.50
2014,01,20,12,45,6.50
2014,01,20,12,46,6.60
2014,01,20,12,47,6.70
2014,01,20,12,48,6.70
2014,01,20,12,49,6.80
2014,01,20,12,50,6.80
2014,01,20,12,51,6.80
2014,01,20,12,52,6.80
2014,01,20,12,53,6.80
2014,01,20,12,54,6.80
2014,01,20,12,55,6.80
2014,01,20,12,56,6.80
2014,01,20,12,57,6.80
2014,01,20,12,58,6.80
2014,01,20,12,59,6.80
2014,01,20,13,00,6.70
2014,01,20,13,01,6.70
2014,01,20,13,02,6.60
2014,01,20,13,03,6.60
2014,01,20,13,04,6.70
2014,01,20,13,05,6.70
2014,01,20,13,06,6.80
2014,01,20,13,07,6.80
2014,01,20,13,08,6.90
2014,01,20,13,09,7.00
2014,01,20,13,10,7.00
2014,01,20,13,11,7.10
2014,01,20,13,12,7.10
2014,01,20,13,13,7.20
2014,01,20,13,14,7.20
2014,01,20,13,15,7.20
2014,01,20,13,16,7.30
2014,01,20,13,17,7.30
2014,01,20,13,18,7.30
2014,01,20,13,19,7.40
2014,01,20,13,20,7.40
2014,01,20,13,21,7.40
2014,01,20,13,22,7.40
2014,01,20,13,23,7.40
2014,01,20,13,24,7.40
2014,01,20,13,25,7.40
2014,01,20,13,26,7.40
2014,01,20,13,27,7.40
2014,01,20,13,28,7.50
2014,01,20,13,29,7.50
2014,01,20,13,30,7.50
2014,01,20,13,31,7.60
2014,01,20,13,32,7.60
2014,01,20,13,33,7.70
2014,01,20,13,34,7.70
2014,01,20,13,35,7.80
2014,01,20,13,36,7.80
2014,01,20,13,37,7.90
2014,01,20,13,38,7.90
2014,01,20,13,39,8.00
2014,01,20,13,40,8.00
2014,01,20,13,41,8.00
2014,01,20,13,42,8.00
2014,01,20,13,43,7.90
2014,01,20,13,44,7.90
2014,01,20,13,45,7.90
2014,01,20,13,46,7.90
2014,01,20,13,47,7.80
2014,01,20,13,48,7.80
2014,01,20,13,49,7.80
2014,01,20,13,50,7.80
2014,01,20,13,51,7.80
2014,01,20,13,52,7.80
2014,01,20,13,53,7.80
2014,01,20,13,54,7.80
2014,01,20,13,55,7.80
2014,01,20,13,56,7.90
2014,01,20,13,57,7.90
2014,01,20,13,58,7.90
2014,01,20,13,59,8.00
2014,01,20,14,00,8.10
2014,01,20,14,01,8.10
2014,01,20,14,02,8.20
2014,01,20,14,03,8.20
2014,01,20,14,04,8.20
2014,01,20,14,05,8.20
2014,01,20,14,06,8.20
2014,01,20,14,07,8.30
2014,01,20,14,08,8.30
2014,01,20,14,09,8.30
2014,01,20,14,10,8.20
2014,01,20,14,11,8.20
2014,01,20,14,12,8.20
2014,01,20,14,13,8.30
2014,01,20,14,14,8.20
2014,01,20,14,15,8.20
2014,01,20,14,16,8.20
2014,01,20,14,17,8.20
2014,01,20,14,18,8.20
2014,01,20,14,19,8.20
2014,01,20,14,20,8.20
2014,01,20,14,21,8.20
2014,01,20,14,22,8.20
2014,01,20,14,23,8.20
2014,01,20,14,24,8.30
2014,01,20,14,25,8.30
2014,01,20,14,26,8.40
2014,01,20,14,27,8.40
2014,01,20,14,28,8.40
2014,01,20,14,29,8.30
2014,01,20,14,30,8.30
2014,01,20,14,31,8.20
2014,01,20,14,32,8.20
2014,01,20,14,33,8.10
2014,01,20,14,34,8.10
2014,01,20,14,35,8.00
2014,01,20,14,36,8.00
2014,01,20,14,37,8.00
2014,01,20,14,38,8.00
2014,01,20,14,39,8.00
2014,01,20,14,40,8.00
2014,01,20,14,41,8.00
2014,01,20,14,42,8.00
2014,01,20,14,43,8.00
2014,01,20,14,44,8.00
2014,01,20,14,45,8.10
2014,01,20,14,46,8.10
2014,01,20,14,47,8.10
2014,01,20,14,48,8.20
2014,01,20,14,49,8.20
2014,01,20,14,50,8.20
2014,01,20,14,51,8.10
2014,01,20,14,52,8.20
2014,01,20,14,53,8.20
2014,01,20,14,54,8.20
2014,01,20,14,55,8.20
2014,01,20,14,56,8.20
2014,01,20,14,57,8.20
2014,01,20,14,58,8.20
2014,01,20,14,59,8.30
2014,01,20,15,00,8.30
2014,01,20,15,01,8.30
2014,01,20,15,02,8.30
2014,01,20,15,03,8.30
2014,01,20,15,04,8.30
2014,01,20,15,05,8.30
2014,01,20,15,06,8.30
2014,01,20,15,07,8.30
2014,01,20,15,08,8.30
2014,01,20,15,09,8.30
2014,01,20,15,10,8.30
2014,01,20,15,11,8.30
2014,01,20,15,12,8.30
2014,01,20,15,13,8.20
2014,01,20,15,14,8.20
2014,01,20,15,15,8.20
2014,01,20,15,16,8.20
2014,01,20,15,17,8.10
2014,01,20,15,18,8.10
2014,01,20,15,19,8.00
2014,01,20,15,20,8.00
2014,01,20,15,21,7.90
2014,01,20,15,22,7.90
2014,01,20,15,23,7.80
2014,01,20,15,24,7.80
2014,01,20,15,25,7.80
2014,01,20,15,26,7.70
2014,01,20,15,27,7.70
2014,01,20,15,28,7.70
2014,01,20,15,29,7.70
2014,01,20,15,30,7.70
2014,01,20,15,31,7.60
2014,01,20,15,32,7.60
2014,01,20,15,33,7.60
2014,01,20,15,34,7.60
2014,01,20,15,35,7.60
2014,01,20,15,36,7.60
2014,01,20,15,37,7.60
2014,01,20,15,38,7.50
2014,01,20,15,39,7.50
2014,01,20,15,40,7.40
2014,01,20,15,41,7.40
2014,01,20,15,42,7.30
2014,01,20,15,43,7.30
2014,01,20,15,44,7.30
2014,01,20,15,45,7.20
2014,01,20,15,46,7.20
2014,01,20,15,47,7.20
2014,01,20,15,48,7.10
2014,01,20,15,49,7.10
2014,01,20,15,50,7.00
2014,01,20,15,51,6.80
2014,01,20,15,52,6.60
2014,01,20,15,53,6.40
2014,01,20,15,54,6.20
2014,01,20,15,55,6.10
2014,01,20,15,56,6.00
2014,01,20,15,57,5.90
2014,01,20,15,58,5.80
2014,01,20,15,59,5.80
2014,01,20,16,00,5.70
2014,01,20,16,01,5.60
2014,01,20,16,02,5.50
2014,01,20,16,03,5.40
2014,01,20,16,04,5.30
2014,01,20,16,05,5.20
2014,01,20,16,06,5.20
2014,01,20,16,07,5.10
2014,01,20,16,08,5.10
2014,01,20,16,09,5.00
2014,01,20,16,10,4.90
2014,01,20,16,11,4.90
2014,01,20,16,12,4.90
2014,01,20,16,13,4.90
2014,01,20,16,14,4.90
2014,01,20,16,15,4.90
2014,01,20,16,16,4.80
2014,01,20,16,17,4.80
2014,01,20,16,18,4.80
2014,01,20,16,19,4.80
2014,01,20,16,20,4.80
2014,01,20,16,21,4.80
2014,01,20,16,22,4.70
2014,01,20,16,23,4.70
2014,01,20,16,24,4.70
2014,01,20,16,25,4.60
2014,01,20,16,26,4.50
2014,01,20,16,27,4.40
2014,01,20,16,28,4.30
2014,01,20,16,29,4.30
2014,01,20,16,30,4.20
2014,01,20,16,31,4.20
2014,01,20,16,32,4.10
2014,01,20,16,33,4.10
2014,01,20,16,34,4.10
2014,01,20,16,35,4.00
2014,01,20,16,36,4.00
2014,01,20,16,37,4.00
2014,01,20,16,38,3.90
2014,01,20,16,39,3.90
2014,01,20,16,40,3.90
2014,01,20,16,41,3.90
2014,01,20,16,42,3.90
2014,01,20,16,43,3.80
2014,01,20,16,44,3.80
2014,01,20,16,45,3.80
2014,01,20,16,46,3.80
2014,01,20,16,47,3.70
2014,01,20,16,48,3.70
2014,01,20,16,49,3.70
2014,01,20,16,50,3.70
2014,01,20,16,51,3.70
2014,01,20,16,52,3.60
2014,01,20,16,53,3.60
2014,01,20,16,54,3.50
2014,01,20,16,55,3.50
2014,01,20,16,56,3.50
2014,01,20,16,57,3.50
2014,01,20,16,58,3.40
2014,01,20,16,59,3.40
2014,01,20,17,00,3.40
2014,01,20,17,01,3.40
2014,01,20,17,02,3.40
2014,01,20,17,03,3.40
2014,01,20,17,04,3.30
2014,01,20,17,05,3.30
2014,01,20,17,06,3.30
2014,01,20,17,07,3.30
2014,01,20,17,08,3.30
2014,01,20,17,09,3.30
2014,01,20,17,10,3.30
2014,01,20,17,11,3.20
2014,01,20,17,12,3.20
2014,01,20,17,13,3.20
2014,01,20,17,14,3.10
2014,01,20,17,15,3.10
2014,01,20,17,16,3.10
2014,01,20,17,17,3.00
2014,01,20,17,18,3.00
2014,01,20,17,19,3.00
2014,01,20,17,20,3.00
2014,01,20,17,21,2.90
2014,01,20,17,22,2.90
2014,01,20,17,23,2.90
2014,01,20,17,24,2.90
2014,01,20,17,25,2.90
2014,01,20,17,26,2.80
2014,01,20,17,27,2.80
2014,01,20,17,28,2.80
2014,01,20,17,29,2.80
2014,01,20,17,30,2.80
2014,01,20,17,31,2.70
2014,01,20,17,32,2.70
2014,01,20,17,33,2.60
2014,01,20,17,34,2.60
2014,01,20,17,35,2.60
2014,01,20,17,36,2.60
2014,01,20,17,37,2.60
2014,01,20,17,38,2.50
2014,01,20,17,39,2.50
2014,01,20,17,40,2.50
2014,01,20,17,41,2.50
2014,01,20,17,42,2.50
2014,01,20,17,43,2.40
2014,01,20,17,44,2.40
2014,01,20,17,45,2.40
2014,01,20,17,46,2.40
2014,01,20,17,47,2.40
2014,01,20,17,48,2.30
2014,01,20,17,49,2.30
2014,01,20,17,50,2.30
2014,01,20,17,51,2.30
2014,01,20,17,52,2.20
2014,01,20,17,53,2.20
2014,01,20,17,54,2.20
2014,01,20,17,55,2.20
2014,01,20,17,56,2.20
2014,01,20,17,57,2.20
2014,01,20,17,58,2.20
2014,01,20,17,59,2.20
2014,01,20,18,00,2.10
2014,01,20,18,01,2.10
2014,01,20,18,02,2.10
2014,01,20,18,03,2.10
2014,01,20,18,04,2.10
2014,01,20,18,05,2.10
2014,01,20,18,06,2.00